TimeCDT,TemperatureF,Dew PointF,Humidity,Sea Level PressureIn,VisibilityMPH,Wind Direction,Wind SpeedMPH,Gust SpeedMPH,PrecipitationIn,Events,Conditions,WindDirDegrees,DateUTC
12:15 AM,65.5,55.8,71,30.01,10.0,East,3.5,-,N/A,,Clear,90,2013-07-04 05:15:00
12:35 AM,64.9,55.8,72,30.01,10.0,East,3.5,-,N/A,,Clear,90,2013-07-04 05:35:00
12:55 AM,64.4,55.8,73,30.01,10.0,Calm,Calm,-,N/A,,Clear,0,2013-07-04 05:55:00
1:15 AM,65.3,55.8,71,30.00,10.0,East,4.6,-,N/A,,Clear,100,2013-07-04 06:15:00
1:35 AM,63.7,55.8,75,30.00,10.0,ESE,3.5,-,N/A,,Clear,120,2013-07-04 06:35:00
1:55 AM,64.6,55.6,73,30.00,10.0,Calm,Calm,-,N/A,,Clear,0,2013-07-04 06:55:00
2:15 AM,62.6,56.1,79,30.00,10.0,East,3.5,-,N/A,,Clear,80,2013-07-04 07:15:00
2:35 AM,63.7,55.6,75,30.00,10.0,Calm,Calm,-,N/A,,Clear,0,2013-07-04 07:35:00
2:55 AM,62.4,56.3,80,29.99,10.0,East,4.6,-,N/A,,Clear,90,2013-07-04 07:55:00
3:15 AM,63.1,54.7,74,29.99,10.0,ESE,3.5,-,N/A,,Clear,110,2013-07-04 08:15:00
3:35 AM,62.8,54.9,75,29.99,10.0,ESE,4.6,-,N/A,,Clear,110,2013-07-04 08:35:00
3:55 AM,62.6,55.6,78,29.99,10.0,East,3.5,-,N/A,,Clear,100,2013-07-04 08:55:00
4:15 AM,61.0,55.4,82,29.99,10.0,East,3.5,-,N/A,,Clear,100,2013-07-04 09:15:00
4:35 AM,60.1,55.2,84,29.99,10.0,Calm,Calm,-,N/A,,Clear,0,2013-07-04 09:35:00
4:55 AM,59.2,55.6,88,29.99,10.0,ENE,5.8,-,N/A,,Clear,70,2013-07-04 09:55:00
5:15 AM,59.2,56.3,90,30.00,10.0,East,4.6,-,N/A,,Clear,80,2013-07-04 10:15:00
5:35 AM,58.8,55.4,88,30.00,10.0,Calm,Calm,-,N/A,,Clear,0,2013-07-04 10:35:00
6:15 AM,59.9,55.9,87,30.00,10.0,East,4.6,-,N/A,,Clear,100,2013-07-04 11:15:00
6:35 AM,60.8,55.8,83,30.00,10.0,East,5.8,-,N/A,,Clear,100,2013-07-04 11:35:00
6:55 AM,61.7,56.3,82,30.01,10.0,East,5.8,-,N/A,,Clear,100,2013-07-04 11:55:00
7:15 AM,63.0,56.3,79,30.01,10.0,ESE,5.8,-,N/A,,Clear,110,2013-07-04 12:15:00
7:35 AM,64.6,57.2,77,30.01,10.0,ESE,4.6,-,N/A,,Clear,110,2013-07-04 12:35:00
7:55 AM,66.9,57.0,70,30.01,10.0,ESE,3.5,-,N/A,,Scattered Clouds,120,2013-07-04 12:55:00
8:15 AM,69.3,56.5,64,30.01,10.0,SSE,5.8,-,N/A,,Scattered Clouds,160,2013-07-04 13:15:00
8:35 AM,70.3,56.8,62,30.01,10.0,South,8.1,-,N/A,,Scattered Clouds,170,2013-07-04 13:35:00
8:55 AM,71.6,57.9,62,30.01,10.0,South,5.8,-,N/A,,Clear,170,2013-07-04 13:55:00
9:15 AM,72.5,58.1,60,30.00,10.0,South,8.1,-,N/A,,Clear,170,2013-07-04 14:15:00
9:35 AM,73.4,57.9,58,30.00,10.0,SSE,10.4,-,N/A,,Clear,160,2013-07-04 14:35:00
9:55 AM,75.2,58.3,56,30.00,10.0,South,10.4,-,N/A,,Clear,170,2013-07-04 14:55:00
10:15 AM,76.5,58.1,53,29.99,10.0,South,8.1,-,N/A,,Scattered Clouds,190,2013-07-04 15:15:00
10:35 AM,76.8,58.5,53,29.99,10.0,South,9.2,-,N/A,,Scattered Clouds,180,2013-07-04 15:35:00
10:55 AM,77.9,58.3,51,29.99,10.0,South,8.1,16.1,N/A,,Clear,180,2013-07-04 15:55:00
11:15 AM,79.7,57.2,46,29.99,10.0,South,8.1,-,N/A,,Clear,190,2013-07-04 16:15:00
11:35 AM,78.8,59.0,51,29.98,10.0,SSE,10.4,-,N/A,,Clear,160,2013-07-04 16:35:00
11:55 AM,79.3,59.2,50,29.98,10.0,South,8.1,-,N/A,,Clear,170,2013-07-04 16:55:00
12:15 PM,80.1,59.0,48,29.98,10.0,South,9.2,-,N/A,,Clear,190,2013-07-04 17:15:00
12:35 PM,81.1,59.7,48,29.98,10.0,South,10.4,-,N/A,,Clear,180,2013-07-04 17:35:00
12:55 PM,80.2,59.4,49,29.98,10.0,SSE,10.4,-,N/A,,Scattered Clouds,160,2013-07-04 17:55:00
1:15 PM,82.0,59.4,46,29.98,10.0,South,10.4,-,N/A,,Scattered Clouds,180,2013-07-04 18:15:00
1:35 PM,82.6,58.5,44,29.97,10.0,SSE,10.4,-,N/A,,Clear,160,2013-07-04 18:35:00
1:55 PM,83.7,59.7,44,29.96,10.0,South,10.4,-,N/A,,Clear,170,2013-07-04 18:55:00
2:35 PM,84.4,57.4,40,29.95,10.0,South,8.1,-,N/A,,Clear,190,2013-07-04 19:35:00
3:15 PM,86.2,54.3,33,29.94,10.0,South,10.4,-,N/A,,Scattered Clouds,190,2013-07-04 20:15:00
4:15 PM,86.0,55.8,36,29.94,10.0,SSE,12.7,17.3,N/A,,Scattered Clouds,150,2013-07-04 21:15:00
4:55 PM,83.3,55.4,38,29.94,10.0,SSE,10.4,-,N/A,,Scattered Clouds,150,2013-07-04 21:55:00
5:15 PM,85.3,55.6,36,29.94,10.0,South,12.7,18.4,N/A,,Scattered Clouds,170,2013-07-04 22:15:00
5:35 PM,84.7,54.9,36,29.93,10.0,South,12.7,-,N/A,,Clear,170,2013-07-04 22:35:00
5:55 PM,84.6,55.4,37,29.93,10.0,SSE,11.5,16.1,N/A,,Clear,160,2013-07-04 22:55:00
6:15 PM,84.2,55.0,37,29.93,10.0,SSE,12.7,-,N/A,,Clear,160,2013-07-04 23:15:00
6:35 PM,84.2,56.5,39,29.93,10.0,SSE,9.2,-,N/A,,Clear,160,2013-07-04 23:35:00
6:55 PM,83.3,55.4,38,29.93,10.0,SSE,11.5,-,N/A,,Clear,160,2013-07-04 23:55:00
7:15 PM,82.4,54.7,38,29.92,10.0,SSE,10.4,-,N/A,,Clear,160,2013-07-05 00:15:00
7:35 PM,81.7,54.9,40,29.92,10.0,SSE,10.4,-,N/A,,Clear,160,2013-07-05 00:35:00
7:55 PM,80.6,56.3,43,29.92,10.0,SSE,10.4,-,N/A,,Clear,150,2013-07-05 00:55:00
8:15 PM,78.8,57.0,47,29.92,10.0,SE,9.2,-,N/A,,Clear,140,2013-07-05 01:15:00
8:35 PM,77.9,57.7,50,29.92,10.0,SE,6.9,-,N/A,,Clear,140,2013-07-05 01:35:00
8:55 PM,76.3,57.7,53,29.92,10.0,SE,6.9,-,N/A,,Clear,140,2013-07-05 01:55:00
9:15 PM,75.0,58.1,56,29.92,10.0,SE,6.9,-,N/A,,Clear,140,2013-07-05 02:15:00
9:55 PM,72.5,58.5,61,29.93,10.0,ESE,5.8,-,N/A,,Clear,120,2013-07-05 02:55:00
10:15 PM,72.3,59.2,63,29.94,10.0,SE,9.2,-,N/A,,Clear,130,2013-07-05 03:15:00
10:35 PM,71.1,60.3,69,29.94,10.0,SE,6.9,-,N/A,,Clear,140,2013-07-05 03:35:00
10:55 PM,71.4,60.1,67,29.94,10.0,SE,8.1,-,N/A,,Clear,140,2013-07-05 03:55:00
11:15 PM,72.0,59.9,66,29.94,10.0,SE,8.1,-,N/A,,Clear,140,2013-07-05 04:15:00
11:35 PM,71.4,59.9,67,29.94,10.0,SSE,8.1,-,N/A,,Clear,150,2013-07-05 04:35:00
11:55 PM,72.1,58.6,62,29.95,10.0,SSE,9.2,-,N/A,,Clear,150,2013-07-05 04:55:00